| time (UTC) | temp F | wind direction | speed MPH | gust MPH | rain 1hr in | rain 24hr in | rain mn in | humidity % | barometer mb |
| 20260508110125 | 70 | 110 | 0.0 | 2.0 | 0.00 | 0.00 | 0.00 | 94 | 1007.3 |
| 20260508110001 | 70 | 110 | 0.0 | 2.0 | 0.00 | 0.00 | 0.00 | 94 | 1007.3 |
| 20260508104603 | 70 | 110 | 0.0 | 2.0 | 0.00 | 0.00 | 0.00 | 94 | 1007.3 |
| 20260508103059 | 70 | 110 | 1.0 | 4.0 | 0.00 | 0.00 | 0.00 | 94 | 1007.3 |
| 20260508101602 | 69 | 97 | 1.0 | 3.0 | 0.00 | 0.00 | 0.00 | 94 | 1007.4 |
| 20260508100058 | 69 | 25 | 2.0 | 4.0 | 0.00 | 0.00 | 0.00 | 95 | 1007.1 |
| 20260508094559 | 69 | 53 | 2.0 | 3.0 | 0.00 | 0.00 | 0.00 | 95 | 1007.6 |
| 20260508093105 | 69 | 105 | 1.0 | 2.0 | 0.00 | 0.00 | 0.00 | 95 | 1007.0 |
| 20260508091558 | 69 | 103 | 0.0 | 1.0 | 0.00 | 0.00 | 0.00 | 94 | 1006.3 |
| 20260508090110 | 69 | 103 | 1.0 | 2.0 | 0.00 | 0.00 | 0.00 | 94 | 1006.3 |
| 20260508084558 | 69 | 103 | 0.0 | 2.0 | 0.00 | 0.00 | 0.00 | 95 | 1005.9 |
| 20260508083057 | 69 | 103 | 0.0 | 3.0 | 0.00 | 0.00 | 0.00 | 95 | 1005.7 |
| 20260508081613 | 69 | 69 | 2.0 | 4.0 | 0.00 | 0.00 | 0.00 | 95 | 1005.5 |
| 20260508080058 | 69 | 219 | 2.0 | 4.0 | 0.00 | 0.00 | 0.00 | 95 | 1005.2 |
| 20260508080000 | 69 | 231 | 2.0 | 3.0 | 0.00 | 0.00 | 0.00 | 95 | 1005.2 |
| 20260508074557 | 69 | 240 | 0.0 | 3.0 | 0.00 | 0.00 | 0.00 | 95 | 1004.6 |
| 20260508073059 | 69 | 257 | 0.0 | 3.0 | 0.00 | 0.00 | 0.00 | 95 | 1004.5 |
| 20260508071558 | 69 | 259 | 0.0 | 4.0 | 0.00 | 0.00 | 0.00 | 94 | 1004.6 |
| 20260508064557 | 69 | 246 | 0.0 | 1.0 | 0.00 | 0.00 | 0.00 | 94 | 1005.4 |
| 20260508063057 | 69 | 246 | 0.0 | 0.0 | 0.00 | 0.00 | 0.00 | 94 | 1005.7 |
| 20260508061606 | 70 | 246 | 0.0 | 0.0 | 0.00 | 0.00 | 0.00 | 94 | 1005.7 |
| 20260508060057 | 70 | 246 | 0.0 | 0.0 | 0.00 | 0.00 | 0.00 | 94 | 1006.0 |
| 20260508054638 | 70 | 246 | 0.0 | 0.0 | 0.00 | 0.00 | 0.00 | 94 | 1006.2 |
| 20260508053059 | 70 | 246 | 0.0 | 0.0 | 0.00 | 0.00 | 0.00 | 93 | 1006.6 |
| 20260508051557 | 70 | 246 | 0.0 | 1.0 | 0.00 | 0.00 | 0.00 | 93 | 1006.7 |
| 20260508050057 | 70 | 246 | 0.0 | 2.0 | 0.00 | 0.00 | 0.00 | 94 | 1006.7 |
| 20260508044603 | 70 | 247 | 0.0 | 3.0 | 0.00 | 0.00 | 0.00 | 93 | 1006.8 |
| 20260508043057 | 70 | 46 | 0.0 | 0.0 | 0.00 | 0.00 | 0.00 | 93 | 1006.7 |
| 20260508041600 | 71 | 46 | 0.0 | 0.0 | 0.00 | 0.00 | 0.00 | 93 | 1006.5 |
| 20260508040059 | 71 | 46 | 0.0 | 1.0 | 0.00 | 0.00 | 0.00 | 93 | 1006.8 |
| 20260508040003 | 71 | 46 | 0.0 | 1.0 | 0.00 | 0.00 | 0.00 | 93 | 1006.8 |
| 20260508034604 | 71 | 46 | 0.0 | 0.0 | 0.00 | 0.00 | 0.00 | 92 | 1006.8 |
| 20260508033059 | 71 | 46 | 0.0 | 0.0 | 0.00 | 0.00 | 0.00 | 92 | 1006.9 |
| 20260508031603 | 71 | 46 | 0.0 | 0.0 | 0.00 | 0.00 | 0.00 | 92 | 1007.3 |
| 20260508030113 | 71 | 46 | 0.0 | 0.0 | 0.00 | 0.00 | 0.00 | 91 | 1007.3 |
| 20260508030003 | 71 | 46 | 0.0 | 0.0 | 0.00 | 0.00 | 0.00 | 91 | 1007.3 |
| 20260508024607 | 72 | 46 | 0.0 | 0.0 | 0.00 | 0.00 | 0.00 | 91 | 1007.5 |
| 20260508023058 | 72 | 46 | 0.0 | 0.0 | 0.00 | 0.00 | 0.00 | 91 | 1007.6 |
| 20260508021616 | 73 | 46 | 0.0 | 0.0 | 0.00 | 0.00 | 0.00 | 91 | 1007.7 |
| 20260508020058 | 73 | 46 | 0.0 | 0.0 | 0.00 | 0.00 | 0.00 | 90 | 1007.8 |
| 20260508020002 | 73 | 46 | 0.0 | 0.0 | 0.00 | 0.00 | 0.00 | 90 | 1007.8 |
| 20260508014602 | 73 | 46 | 0.0 | 0.0 | 0.00 | 0.00 | 0.00 | 90 | 1007.7 |
| 20260508013110 | 73 | 46 | 0.0 | 0.0 | 0.00 | 0.00 | 0.00 | 90 | 1007.6 |
| 20260508011603 | 73 | 46 | 0.0 | 0.0 | 0.00 | 0.00 | 0.00 | 90 | 1007.6 |
| 20260508010058 | 73 | 46 | 0.0 | 0.0 | 0.00 | 0.00 | 0.00 | 89 | 1007.6 |
| 20260508010002 | 73 | 46 | 0.0 | 0.0 | 0.00 | 0.00 | 0.00 | 89 | 1007.6 |
| 20260508004601 | 74 | 46 | 0.0 | 1.0 | 0.00 | 0.00 | 0.00 | 89 | 1007.6 |
| 20260508003106 | 74 | 46 | 0.0 | 0.0 | 0.00 | 0.00 | 0.00 | 89 | 1007.7 |
| 20260508001603 | 74 | 46 | 0.0 | 2.0 | 0.00 | 0.00 | 0.00 | 89 | 1007.8 |
| 20260508000058 | 74 | 46 | 1.0 | 3.0 | 0.00 | 0.00 | 0.00 | 89 | 1007.7 |
| 20260508000004 | 74 | 46 | 1.0 | 3.0 | 0.00 | 0.00 | 0.00 | 89 | 1007.7 |
| 20260507234558 | 74 | 65 | 1.0 | 3.0 | 0.00 | 0.00 | 0.00 | 89 | 1007.8 |
| 20260507233058 | 74 | 28 | 2.0 | 4.0 | 0.00 | 0.00 | 0.00 | 88 | 1007.7 |
| 20260507231600 | 74 | 354 | 1.0 | 5.0 | 0.00 | 0.00 | 0.00 | 88 | 1007.7 |
| 20260507230101 | 74 | 41 | 0.0 | 3.0 | 0.00 | 0.00 | 0.00 | 88 | 1007.5 |
| 20260507230001 | 74 | 41 | 0.0 | 3.0 | 0.00 | 0.00 | 0.00 | 88 | 1007.5 |
| 20260507224605 | 75 | 23 | 2.0 | 5.0 | 0.00 | 0.00 | 0.00 | 88 | 1007.5 |
| 20260507223100 | 75 | 30 | 1.0 | 3.0 | 0.00 | 0.00 | 0.00 | 88 | 1007.5 |
| 20260507221558 | 75 | 24 | 0.0 | 2.0 | 0.00 | 0.00 | 0.00 | 88 | 1007.4 |
| 20260507220058 | 75 | 27 | 1.0 | 3.0 | 0.00 | 0.00 | 0.00 | 87 | 1007.2 |
| 20260507220001 | 75 | 27 | 1.0 | 3.0 | 0.00 | 0.00 | 0.00 | 87 | 1007.2 |
| 20260507214559 | 75 | 27 | 1.0 | 3.0 | 0.00 | 0.00 | 0.00 | 87 | 1007.0 |
| 20260507213058 | 75 | 26 | 2.0 | 4.0 | 0.00 | 0.00 | 0.00 | 87 | 1006.9 |
| 20260507211558 | 75 | 51 | 1.0 | 4.0 | 0.00 | 0.00 | 0.00 | 87 | 1006.7 |
| 20260507210120 | 76 | 41 | 2.0 | 5.0 | 0.00 | 0.00 | 0.00 | 87 | 1006.6 |
| 20260507210010 | 76 | 25 | 3.0 | 5.0 | 0.00 | 0.00 | 0.00 | 87 | 1006.6 |
| 20260507204606 | 76 | 8 | 2.0 | 6.0 | 0.00 | 0.00 | 0.00 | 87 | 1006.5 |
| 20260507203107 | 76 | 32 | 3.0 | 5.0 | 0.00 | 0.00 | 0.00 | 86 | 1006.3 |
| 20260507201603 | 77 | 38 | 3.0 | 7.0 | 0.00 | 0.00 | 0.00 | 86 | 1006.2 |
| 20260507200107 | 77 | 23 | 2.0 | 6.0 | 0.00 | 0.00 | 0.00 | 85 | 1006.1 |
| 20260507200006 | 78 | 26 | 2.0 | 7.0 | 0.00 | 0.00 | 0.00 | 85 | 1006.1 |
| 20260507194558 | 78 | 34 | 5.0 | 9.0 | 0.00 | 0.00 | 0.00 | 84 | 1005.9 |
| 20260507193131 | 79 | 39 | 5.0 | 10.0 | 0.00 | 0.00 | 0.00 | 83 | 1006.1 |
| 20260507191601 | 80 | 20 | 3.0 | 8.0 | 0.00 | 0.00 | 0.00 | 82 | 1006.1 |
| 20260507190058 | 80 | 72 | 3.0 | 11.0 | 0.00 | 0.00 | 0.00 | 82 | 1006.1 |
| 20260507190002 | 80 | 79 | 2.0 | 11.0 | 0.00 | 0.00 | 0.00 | 82 | 1006.1 |
| 20260507184559 | 81 | 72 | 5.0 | 8.0 | 0.00 | 0.00 | 0.00 | 80 | 1006.1 |
| 20260507183105 | 81 | 66 | 3.0 | 12.0 | 0.00 | 0.00 | 0.00 | 80 | 1006.2 |
| 20260507181558 | 82 | 121 | 6.0 | 8.0 | 0.00 | 0.00 | 0.00 | 78 | 1006.3 |
| 20260507180059 | 82 | 53 | 4.0 | 8.0 | 0.00 | 0.00 | 0.00 | 79 | 1006.5 |
| 20260507180002 | 82 | 102 | 5.0 | 8.0 | 0.00 | 0.00 | 0.00 | 79 | 1006.5 |
| 20260507174608 | 82 | 89 | 2.0 | 7.0 | 0.00 | 0.00 | 0.00 | 78 | 1006.7 |
| 20260507173133 | 82 | 25 | 1.0 | 7.0 | 0.00 | 0.00 | 0.00 | 79 | 1006.8 |
| 20260507171602 | 82 | 39 | 4.0 | 8.0 | 0.00 | 0.00 | 0.00 | 77 | 1007.0 |
| 20260507170058 | 82 | 62 | 1.0 | 5.0 | 0.00 | 0.00 | 0.00 | 78 | 1007.1 |
| 20260507170000 | 82 | 58 | 1.0 | 6.0 | 0.00 | 0.00 | 0.00 | 79 | 1007.1 |
| 20260507164608 | 81 | 41 | 3.0 | 6.0 | 0.00 | 0.00 | 0.00 | 78 | 1007.5 |
| 20260507163058 | 81 | 25 | 3.0 | 6.0 | 0.00 | 0.00 | 0.00 | 78 | 1008.0 |
| 20260507161610 | 81 | 78 | 2.0 | 7.0 | 0.00 | 0.00 | 0.00 | 78 | 1008.3 |
| 20260507160116 | 80 | 57 | 2.0 | 6.0 | 0.00 | 0.00 | 0.00 | 78 | 1008.7 |
| 20260507160002 | 80 | 119 | 3.0 | 6.0 | 0.00 | 0.00 | 0.00 | 78 | 1008.7 |
| 20260507154558 | 80 | 275 | 0.0 | 4.0 | 0.00 | 0.00 | 0.00 | 78 | 1009.2 |
| 20260507153101 | 79 | 70 | 2.0 | 4.0 | 0.00 | 0.00 | 0.00 | 79 | 1009.7 |
| 20260507151558 | 79 | 41 | 3.0 | 5.0 | 0.00 | 0.00 | 0.00 | 79 | 1010.1 |
| 20260507150058 | 79 | 203 | 1.0 | 5.0 | 0.00 | 0.00 | 0.00 | 80 | 1010.5 |
| 20260507150002 | 79 | 198 | 1.0 | 5.0 | 0.00 | 0.00 | 0.00 | 79 | 1010.5 |
| 20260507144605 | 78 | 63 | 0.0 | 3.0 | 0.00 | 0.00 | 0.00 | 81 | 1010.9 |
| 20260507143101 | 77 | 56 | 1.0 | 4.0 | 0.00 | 0.00 | 0.00 | 82 | 1011.4 |
| 20260507141619 | 77 | 56 | 2.0 | 3.0 | 0.00 | 0.00 | 0.00 | 82 | 1011.7 |
| 20260507140109 | 77 | 98 | 0.0 | 2.0 | 0.00 | 0.00 | 0.00 | 82 | 1012.0 |
| 20260507140001 | 77 | 56 | 0.0 | 2.0 | 0.00 | 0.00 | 0.00 | 82 | 1012.0 |
| 20260507134608 | 76 | 53 | 1.0 | 3.0 | 0.00 | 0.00 | 0.00 | 83 | 1012.3 |
| 20260507133103 | 77 | 39 | 2.0 | 4.0 | 0.00 | 0.00 | 0.00 | 83 | 1012.5 |
| 20260507131601 | 76 | 92 | 0.0 | 2.0 | 0.00 | 0.00 | 0.00 | 84 | 1012.7 |
| 20260507130058 | 76 | 83 | 1.0 | 4.0 | 0.00 | 0.00 | 0.00 | 84 | 1012.9 |
| 20260507130003 | 76 | 65 | 2.0 | 4.0 | 0.00 | 0.00 | 0.00 | 84 | 1012.9 |
| 20260507124604 | 76 | 64 | 2.0 | 4.0 | 0.00 | 0.00 | 0.00 | 86 | 1013.1 |
| 20260507123057 | 75 | 360 | 0.0 | 3.0 | 0.00 | 0.00 | 0.00 | 88 | 1013.0 |
| 20260507121558 | 74 | 252 | 0.0 | 2.0 | 0.00 | 0.00 | 0.00 | 89 | 1013.1 |
| 20260507120059 | 74 | 261 | 0.0 | 2.0 | 0.00 | 0.00 | 0.00 | 89 | 1013.1 |
| 20260507120001 | 73 | 261 | 0.0 | 2.0 | 0.00 | 0.00 | 0.00 | 90 | 1013.1 |
| 20260507114603 | 73 | 257 | 0.0 | 3.0 | 0.00 | 0.00 | 0.00 | 91 | 1013.1 |
| 20260507113058 | 72 | 259 | 1.0 | 2.0 | 0.00 | 0.00 | 0.00 | 91 | 1013.2 |
| 20260507111602 | 72 | 262 | 0.0 | 2.0 | 0.00 | 0.00 | 0.00 | 92 | 1013.3 |